Location: Quedlinburg
(51.7921°N, 11.1414°E)
Time: 05:57:25
(UTC+02:00)

BEESAT - Pass Details

Date: 24 March 2026
Orbit: 683 x 693 km, 98.4° (Epoch: 17 April)

Event Time Altitude Azimuth Distance (km) Brightness Sun altitude
Rises 00:15:48 0° 13° (NNE) 3,064 ? -36.9°
Reaches altitude 10° 00:18:03 10° 11° (N) 2,142 ? -36.9°
Enters shadow 00:19:34 21° 8° (N) 1,549 ? -36.9°
